Date,TemperatureHighF,TemperatureAvgF,TemperatureLowF,DewpointHighF,DewpointAvgF,DewpointLowF,HumidityHigh,HumidityAvg,HumidityLow,PressureMaxIn,PressureMinIn,WindSpeedMaxMPH,WindSpeedAvgMPH,GustSpeedMaxMPH,PrecipitationSumIn
2013-2-1,67.2,54.4,44.0,45.5,38.3,28.8,79,57,25,30.38,30.24,10,1,12,0.00
2013-2-2,71.4,55.5,46.2,48.7,42.5,27.1,86,64,21,30.33,30.17,7,1,7,0.00
2013-2-3,69.4,54.4,41.8,56.1,48.6,40.7,98,82,60,30.22,30.11,9,1,9,0.00
2013-2-4,69.9,53.1,42.0,54.5,44.1,37.2,99,76,34,30.16,30.06,9,1,9,0.01
2013-2-5,75.6,58.3,43.8,55.7,49.1,42.3,98,75,43,30.11,30.01,8,1,10,0.00
2013-2-6,77.0,66.8,57.0,63.8,59.5,54.1,95,79,57,30.11,30.03,8,1,8,0.00
2013-2-7,79.0,68.6,61.1,67.2,63.8,59.0,98,86,58,30.06,29.87,19,2,19,0.13
2013-2-8,73.2,64.9,57.3,66.8,61.4,55.7,96,89,70,30.10,29.91,10,2,12,0.00
2013-2-9,77.5,62.9,53.6,59.6,55.6,51.9,98,79,44,30.21,30.08,8,2,9,0.01
2013-2-10,80.8,69.0,61.4,63.8,60.5,56.0,89,75,52,30.25,30.13,14,2,14,0.00
2013-2-11,79.9,70.0,62.4,68.2,64.4,60.3,94,83,65,30.20,30.08,11,2,20,0.00
2013-2-12,79.2,71.8,66.1,71.7,68.6,64.6,97,90,76,30.10,29.95,14,2,17,0.00
2013-2-13,77.3,69.6,58.0,73.1,67.7,55.7,98,94,84,30.00,29.85,16,3,18,0.52
2013-2-14,62.1,59.9,58.0,61.3,59.1,57.2,99,97,91,30.07,29.93,8,0,8,0.34
2013-2-15,67.1,57.5,52.8,57.7,54.2,50.6,98,90,64,30.10,29.97,5,1,7,0.03
2013-2-16,66.9,56.2,47.7,54.2,47.1,35.6,97,73,50,30.16,29.97,13,2,16,0.00
2013-2-17,52.6,45.8,35.6,37.1,27.8,19.0,85,51,35,30.36,30.16,13,2,16,0.00
2013-2-18,69.4,49.8,35.0,50.1,38.5,28.8,91,68,37,30.38,30.21,10,1,12,0.00
2013-2-19,75.3,62.9,48.9,62.3,56.3,47.5,98,81,56,30.23,30.09,11,1,13,0.00
2013-2-20,75.7,64.0,56.8,64.7,60.0,53.3,98,88,67,30.14,30.02,8,1,9,0.01
2013-2-21,81.7,67.7,56.6,67.3,61.8,53.2,95,83,60,30.12,29.99,11,1,13,0.00
2013-2-22,80.8,70.2,60.9,71.1,66.0,60.0,99,87,68,30.07,29.99,12,1,13,0.00
2013-2-23,76.4,71.3,68.1,72.2,69.4,67.0,98,94,86,30.01,29.90,15,2,15,0.00
2013-2-24,77.8,70.5,66.8,72.0,68.7,66.1,99,94,81,29.96,29.88,11,1,12,0.00
2013-2-25,82.2,73.4,66.8,72.7,69.4,66.2,99,88,69,29.91,29.77,13,1,14,0.00
2013-2-26,74.6,70.6,65.8,71.9,67.2,61.3,98,89,75,29.90,29.70,14,2,20,0.34
2013-2-27,69.3,63.8,58.3,61.4,57.0,52.8,92,79,63,30.00,29.88,6,1,9,0.00
2013-2-28,71.4,62.3,54.3,58.1,53.7,48.5,94,74,58,30.02,29.92,10,1,12,0.00